Regional Weather Roundup
Issued by NWS

Home | Current Version | Previous Version | Text Only | Print | Product List | Glossary On
Versions: 1 2 3 4 5 6 7 8 9 10 11 12 13 14 15 16 17 18 19 20 21 22 23 24 25 26 27 28 29 30 31 32 33 34 35 36 37 38 39 40 41 42 43 44 45 46 47 48 49 50
000
ASUS44 KEWX 240211
RWRTX
SOUTH TEXAS REGIONAL WEATHER ROUNDUP
NATIONAL WEATHER SERVICE AUSTIN/SAN ANTONIO TX
900 PM CDT SAT MAY 23 2015

NOTE: "FAIR" INDICATED FEW OR NO CLOUDS BELOW 12,000 FEET WITH NO
SIGNIFICANT WEATHER AND/OR OBSTRUCTIONS TO VISIBILITY.

* - THESE STATIONS ARE NOT NWS OR FAA STATIONS...AND ARE NOT SUBJECT
    TO NWS AND FAA QUALITY CONTROL.

TXZ171-172-183>190-240300-
TEXAS HILL COUNTRY AND EDWARDS PLATEAU

CITY           SKY/WX    TMP DP  RH WIND       PRES   REMARKS
JUNCTION       LGT RAIN  66  63  90 E8        29.94F
*LLANO         CLOUDY    66  66 100 N5        30.01F FOG
BURNET         RAIN      68  66  93 MISG      29.98F FOG
*HORSESHOE BAY CLOUDY    67  67  98 W5        29.98S
*KERRVILLE     RAIN      64  63  95 NE3       29.98F
*FREDERICKSBRG RAIN      65  64  96 E3        29.99S
*ROCKSPRINGS   LGT RAIN  63  63 100 E10G16    29.96F
*BOERNE STAGE    N/A     63  63 100 N9        29.98F
*CASTROVILLE   TSTM      65  64  98 E9        29.97R
HONDO          TSTM      66  65  96 E15       29.98R
*UVALDE        DRIZZLE   67  67  99 E10       29.94R
DEL RIO        MOCLDY    69  65  86 SE3       29.88R
LAUGHLIN AFB   NOT AVBL
CARRIZO SPRGS  LGT RAIN  70  68  94 NE6       29.87R
$$

TXZ173-191>194-202-209-217>225-228-240300-
CENTRAL AND SOUTH CENTRAL TEXAS

CITY           SKY/WX    TMP DP  RH WIND       PRES   REMARKS
GEORGETOWN     TSTM      72  72 100 NE8       29.93F
AUSTIN/BERGSTM TSTM      73  73 100 SE12      29.92S
AUSTIN/MABRY   TSTM      74  73  97 SE8       29.93F FOG
*AUSTIN/EXEC   LGT RAIN  73  73 100 E9        29.95R
*LAGO VISTA    TSTM      72  71  95 E14G23    29.92F
SAN MARCOS     CLOUDY    75  72  88 S14       29.97R
NEW BRAUNFELS  HVY RAIN  67  65  93 W22G43    30.03R FOG
RANDOLPH AFB   TSTM      66  63  88 W10G24    30.02R VSB 1
PT SAN ANTONIO TSTM      64  63  94 N7        29.98S FOG
SAN ANTONIO    TSTM      65  62  90 E7        30.00F FOG
STINSON FIELD  TSTM      65  63  93 N12       29.97R FOG
*PLEASANTON    CLOUDY    77  73  87 E7        29.93R
*LA GRANGE     CLOUDY    78  74  85 S6        29.95R
*GIDDINGS      CLOUDY    76  71  84 SE5       30.01R
*GONZALES      CLOUDY    78  75  90 SE9       29.95R THUNDER
$$

TXZ163>164-176>182-195>201-210>213-226-227-235-240300-
SOUTHEAST TEXAS

CITY           SKY/WX    TMP DP  RH WIND       PRES   REMARKS
COLLEGE STN    CLOUDY    76  72  87 E6        29.96S
*BRYAN         CLOUDY    75  73  94 E6        29.98S
*CALDWELL      CLOUDY    73  73 100 CALM      29.99S
*CROCKETT      NOT AVBL
*BRENHAM       CLOUDY    78  73  84 SE7       29.97R
HUNTSVILLE     CLOUDY    78  71  79 CALM      29.99R
CONROE         CLOUDY    77  70  79 SE9       30.00R
HOUSTON BUSH   MOCLDY    77  73  87 SE12      29.99R
HOUSTON HOBBY  MOCLDY    79  73  82 SE9       29.98R
*HOUSTON SW AP NOT AVBL
PEARLAND       MOCLDY    80  73  79 SE9       30.00R
HOUSTON HOOKS  MOCLDY    79  71  76 SE8       29.98R
ELLINGTON FLD  MOCLDY    79  73  83 SE9       30.00R
SUGAR LAND     MOCLDY    79  72  79 SE12      29.97R
*HOUSTON EXEC  MOCLDY    77  72  83 SE12      29.98S
*CLEVELAND MUN MOCLDY    76  73  90 S5        30.01R
*WHARTON       MOCLDY    77  73  85 SE8       29.97R
*COLUMBUS      FAIR      76  73  87 SE6       29.97R
$$

TXZ214>216-236>238-240300-
THE UPPER TEXAS COAST

CITY           SKY/WX    TMP DP  RH WIND       PRES   REMARKS
*ORANGE        PTCLDY    78  72  81 SE5       30.03S
PORT ARTHUR    MOCLDY    79  74  84 SE10      30.01R
GALVESTON      PTCLDY    80  74  81 SE16      30.01R
ANGLETON       MOCLDY    77  74  90 SE10      29.98S
*BAY CITY      MOCLDY    77  76  96 SE9       29.96F
PALACIOS       MOCLDY    80  73  79 SE15G23   29.95F
$$

TXZ229>234-239>247-240300-
TEXAS COASTAL BEND AND RIO GRANDE PLAINS

CITY           SKY/WX    TMP DP  RH WIND       PRES   REMARKS
VICTORIA       MOCLDY    77  74  90 SE10      29.95R
*BEEVILLE      MOCLDY    78  77  98 SE9       29.92S
ROCKPORT       CLOUDY    81  73  76 SE20G28   29.92R
*PORT ARANSAS  MOCLDY    80  75  84 SE17G24   29.92R
*PORT LAVACA   MOCLDY    79  73  83 SE13G18   29.95R
*INGLESIDE     CLOUDY    82  74  79 SE20G25   29.91R
CORPUS CHRISTI CLOUDY    80  74  81 SE18      29.91R
CORPUS NAS     CLOUDY    80  75  84 SE20      29.91R
*ROBSTOWN      CLOUDY    80  76  88 SE9       29.91R
ALICE          CLOUDY    79  73  82 SE12      29.88R
KINGSVILLE NAS CLOUDY    80  76  87 MISG      29.89R
COTULLA        TSTM      74  70  87 NE13G23   29.88R
*FAITH RANCH     N/A     72  70  94 N9G16     29.88R
LAREDO         CLOUDY    81  74  79 E8        29.88R
$$

TXZ248>255-240300-
DEEP SOUTH TEXAS

CITY           SKY/WX    TMP DP  RH WIND       PRES   REMARKS
BROWNSVILLE    PTCLDY    80  75  84 SE17G26   29.87S
PORT ISABEL    PTCLDY    81  75  82 SE20G26   29.87R
*SOUTH PADRE     N/A     84  84 100 SW18G25   29.88S HX 104
HARLINGEN      MOCLDY    81  75  82 SE18      29.85R
*HEBBRONVILLE    N/A     80  69  69 E13       29.87S
MCALLEN        CLOUDY    82  73  74 SE14      29.85R
*WESLACO       MOCLDY    79  72  77 SE9G16    29.86R
FALFURRIAS     CLOUDY    79  73  81 SE8       29.87R
EDINBURG       PTCLDY    82  72  72 SE10      29.86R
*ZAPATA        PTCLDY    82  71  68 SE9G22    29.82R
$$

TXZ213>215-236>238-242>244-246-247-251-254-255-240300-
CMAN STATIONS

STATION/POSITION TIME  TEMP    WIND        PRES    WAVE
                       AIR SEA DIR/SP/G            HT/PER
                 (UTC) (F)     (DEG/KT/KT) (MB)    (FT/S)
$$

GMZ080-GMZ150>470-240300-
OFFSHORE BUOY REPORTS

STATION/POSITION TIME  TEMP    WIND        PRES    WAVE
                       AIR SEA DIR/SP/G            HT/PER
                 (UTC) (F)     (DEG/KT/KT) (MB)    (FT/S)
$$


USA.gov is the U.S. government's official web portal to all federal, state and local government web resources and services.